(°C)
10°
11°
11°
12°
12°
13°
12°
(°C)
ИЮИ
ЮИ
ИЮИ
ИЮИ
И
И
ИЮИ
(km/h)
17-22
16-23
14-25
14-25
14-24
14-25
14-24
(mm)
1
1
0
0
0
0
0
(%)
25
25
15
23
16
16
16

Издигане на слънцето

/ 32.4°
sun-icon
UV 1
06:24
18:39
Намаляваща полу-луна (209°)
19:38
08:49

METAR за 53.5°С 50.15°И (UWWW)

Час Условия Температура/
Точка на оросяване
Вятър Видимост Времето Облаци Налягане Промяна Сурови
VFR 10°C / 6°C 110º 8kt >10km Light Rain 1.00mm precipitation Vertical Visibility of 0ft. 1020 No Significant change. Runway 15: Wet or puddles, 51-100% contamination with 1mm, friction coefficient 0.50. UWWW 230630Z 11004MPS 9999 -RA SCT033 10/06 Q1020 R15/290150 NOSIG RMK QFE753/1005
VFR 10°C / 6°C 110º 10kt >10km Light Rain 1.00mm precipitation Vertical Visibility of 0ft. 1020 No Significant change. Runway 15: Wet or puddles, 51-100% contamination with 1mm, friction coefficient 0.50. UWWW 230600Z 11005MPS 9999 -RA BKN049 10/06 Q1020 R15/290150 NOSIG RMK QFE754/1005
VFR 10°C / 6°C 110º 8kt >10km Light Rain 1.00mm precipitation Vertical Visibility of 0ft. 1020 No Significant change. Runway 15: Wet or puddles, 51-100% contamination with 1mm, friction coefficient 0.50. UWWW 230530Z 11004MPS 9999 -RA SCT033 10/06 Q1020 R15/290150 NOSIG RMK QFE754/1005
VFR 9°C / 6°C 90º 6kt >10km - Scattered Clouds 3300ft 1020 No Significant change. Runway 15: Wet or puddles, 51-100% contamination with 1mm, friction coefficient 0.50. UWWW 230500Z 09003MPS 9999 SCT033 09/06 Q1020 R15/290150 NOSIG RMK QFE753/1005
VFR 9°C / 6°C 120º 6kt >10km Light Rain 1.00mm precipitation Vertical Visibility of 0ft. 1020 No Significant change. Runway 15: Wet or puddles, 51-100% contamination with 1mm, friction coefficient 0.50. UWWW 230430Z 12003MPS 9999 -RA SCT033 09/06 Q1020 R15/290150 NOSIG RMK QFE753/1005
VFR 9°C / 6°C 90º 10kt >10km - Scattered Clouds 3300ft 1020 No Significant change. Runway 15: Wet or puddles, 51-100% contamination with 1mm, friction coefficient 0.50. UWWW 230400Z 09005MPS 9999 SCT033 09/06 Q1020 R15/290150 NOSIG RMK QFE753/1004
VFR 9°C / 6°C 80º 10kt >10km - Scattered Clouds 3300ft 1019 No Significant change. Runway 15: Wet or puddles, 51-100% contamination with 1mm, friction coefficient 0.50. UWWW 230330Z 08005MPS 9999 SCT033 09/06 Q1019 R15/290150 NOSIG RMK QFE753/1004
VFR 9°C / 6°C 90º 10kt >10km - Scattered Clouds 3300ft 1020 No Significant change. Runway 15: Wet or puddles, 51-100% contamination with 1mm, friction coefficient 0.50. UWWW 230300Z 09005MPS 9999 SCT033 09/06 Q1020 R15/290150 NOSIG RMK QFE753/1004
VFR 9°C / 6°C 80º 10kt >10km - Scattered Clouds 3300ft 1019 No Significant change. Runway 15: Wet or puddles, 51-100% contamination with 1mm, friction coefficient 0.50. UWWW 230230Z 08005MPS 9999 SCT033 09/06 Q1019 R15/290150 NOSIG RMK QFE753/1004
VFR 9°C / 6°C 80º 10kt >10km - Scattered Clouds 3300ft 1019 No Significant change. Runway 15: Wet or puddles, 51-100% contamination with 1mm, friction coefficient 0.50. UWWW 230200Z 08005MPS 9999 SCT033 09/06 Q1019 R15/290150 NOSIG RMK QFE753/1004
VFR 9°C / 6°C 80º 10kt >10km - Scattered Clouds 3300ft 1019 No Significant change. Runway 15: Wet or puddles, 51-100% contamination with 1mm, friction coefficient 0.50. UWWW 230130Z 08005MPS 9999 SCT033 09/06 Q1019 R15/290150 NOSIG RMK QFE753/1004
VFR 9°C / 6°C 80º 10kt >10km - Scattered Clouds 3300ft 1019 No Significant change. Runway 15: Wet or puddles, 51-100% contamination with 1mm, friction coefficient 0.50. UWWW 230100Z 08005MPS 9999 SCT033 09/06 Q1019 R15/290150 NOSIG RMK QFE753/1004
VFR 9°C / 6°C 80º 10kt >10km - Scattered Clouds 3300ft 1019 No Significant change. Runway 15: Wet or puddles, 51-100% contamination with 1mm, friction coefficient 0.50. UWWW 230030Z 08005MPS 9999 SCT033 09/06 Q1019 R15/290150 NOSIG RMK QFE753/1004
VFR 9°C / 6°C 80º 8kt >10km - Scattered Clouds 3300ft 1019 No Significant change. Runway 15: Wet or puddles, 51-100% contamination with 1mm, friction coefficient 0.50. UWWW 230000Z 08004MPS 9999 SCT033 09/06 Q1019 R15/290150 NOSIG RMK QFE753/1004
VFR 8°C / 6°C 70º 6kt >10km - Scattered Clouds 3300ft 1019 No Significant change. Runway 15: Wet or puddles, 51-100% contamination with 1mm, friction coefficient 0.50. UWWW 222330Z 07003MPS 9999 SCT033 08/06 Q1019 R15/290150 NOSIG RMK QFE753/1004
VFR 9°C / 6°C 80º 8kt >10km - Scattered Clouds 3300ft 1019 No Significant change. Runway 15: Wet or puddles, 51-100% contamination with 1mm, friction coefficient 0.50. UWWW 222300Z 08004MPS 9999 SCT033 09/06 Q1019 R15/290150 NOSIG RMK QFE753/1004
VFR 8°C / 6°C 80º 8kt >10km - Scattered Clouds 3300ft 1020 No Significant change. Runway 15: Wet or puddles, 51-100% contamination with 1mm, friction coefficient 0.50. UWWW 222230Z 08004MPS 9999 SCT033 08/06 Q1020 R15/290150 NOSIG RMK QFE753/1004
VFR 8°C / 6°C 90º 8kt >10km - Scattered Clouds 3300ft 1020 No Significant change. Runway 15: Wet or puddles, 51-100% contamination with 1mm, friction coefficient 0.50. UWWW 222200Z 09004MPS 9999 SCT033 08/06 Q1020 R15/290150 NOSIG RMK QFE753/1004
VFR 9°C / 6°C 100º 10kt >10km Light Rain 1.00mm precipitation Vertical Visibility of 0ft. 1020 No Significant change. Runway 15: Wet or puddles, 51-100% contamination with 1mm, friction coefficient 0.50. UWWW 222130Z 10005MPS 9999 -RA SCT033 09/06 Q1020 R15/290150 NOSIG RMK QFE753/1004
VFR 9°C / 6°C 90º 10kt >10km Light Rain 1.00mm precipitation Vertical Visibility of 0ft. 1020 No Significant change. Runway 15: Wet or puddles, 51-100% contamination with 1mm, friction coefficient 0.50. UWWW 222100Z 09005MPS 9999 -RA SCT033 09/06 Q1020 R15/290150 NOSIG RMK QFE753/1004
VFR 9°C / 6°C 100º 6kt >10km Light Rain 1.00mm precipitation Vertical Visibility of 0ft. 1020 No Significant change. Runway 15: Wet or puddles, 51-100% contamination with 1mm, friction coefficient 0.50. UWWW 222030Z 10003MPS 9999 -RA SCT033 09/06 Q1020 R15/290150 NOSIG RMK QFE753/1005
VFR 9°C / 6°C 130º 8kt >10km Light Rain 1.00mm precipitation Vertical Visibility of 0ft. 1020 No Significant change. Runway 15: Wet or puddles, 51-100% contamination with 1mm, friction coefficient 0.50. UWWW 222000Z 13004MPS 9999 -RA SCT033 09/06 Q1020 R15/290150 NOSIG RMK QFE753/1005
VFR 9°C / 6°C 120º 10kt >10km Light Rain 1.00mm precipitation Vertical Visibility of 0ft. 1020 No Significant change. Runway 15: Wet or puddles, 51-100% contamination with 1mm, friction coefficient 0.50. UWWW 221930Z 12005MPS 9999 -RA SCT033 09/06 Q1020 R15/290150 NOSIG RMK QFE753/1004
VFR 9°C / 6°C 130º 8kt >10km Light Rain 1.00mm precipitation Vertical Visibility of 0ft. 1020 No Significant change. Runway 15: Wet or puddles, 51-100% contamination with 1mm, friction coefficient 0.50. UWWW 221900Z 13004MPS 9999 -RA SCT033 09/06 Q1020 R15/290150 NOSIG RMK QFE753/1004

VFR

10°C / 6°C

[Още]
Вятър 110º 8kt
Видимост >10km
Времето Light Rain 1.00mm precipitation
Облаци Vertical Visibility of 0ft.
Налягане 1020
Промяна No Significant change. Runway 15: Wet or puddles, 51-100% contamination with 1mm, friction coefficient 0.50.
Сурови UWWW 230630Z 11004MPS 9999 -RA SCT033 10/06 Q1020 R15/290150 NOSIG RMK QFE753/1005

VFR

10°C / 6°C

[Още]
Вятър 110º 10kt
Видимост >10km
Времето Light Rain 1.00mm precipitation
Облаци Vertical Visibility of 0ft.
Налягане 1020
Промяна No Significant change. Runway 15: Wet or puddles, 51-100% contamination with 1mm, friction coefficient 0.50.
Сурови UWWW 230600Z 11005MPS 9999 -RA BKN049 10/06 Q1020 R15/290150 NOSIG RMK QFE754/1005

VFR

10°C / 6°C

[Още]
Вятър 110º 8kt
Видимост >10km
Времето Light Rain 1.00mm precipitation
Облаци Vertical Visibility of 0ft.
Налягане 1020
Промяна No Significant change. Runway 15: Wet or puddles, 51-100% contamination with 1mm, friction coefficient 0.50.
Сурови UWWW 230530Z 11004MPS 9999 -RA SCT033 10/06 Q1020 R15/290150 NOSIG RMK QFE754/1005

VFR

9°C / 6°C

[Още]
Вятър 90º 6kt
Видимост >10km
Времето -
Облаци Scattered Clouds 3300ft
Налягане 1020
Промяна No Significant change. Runway 15: Wet or puddles, 51-100% contamination with 1mm, friction coefficient 0.50.
Сурови UWWW 230500Z 09003MPS 9999 SCT033 09/06 Q1020 R15/290150 NOSIG RMK QFE753/1005

VFR

9°C / 6°C

[Още]
Вятър 120º 6kt
Видимост >10km
Времето Light Rain 1.00mm precipitation
Облаци Vertical Visibility of 0ft.
Налягане 1020
Промяна No Significant change. Runway 15: Wet or puddles, 51-100% contamination with 1mm, friction coefficient 0.50.
Сурови UWWW 230430Z 12003MPS 9999 -RA SCT033 09/06 Q1020 R15/290150 NOSIG RMK QFE753/1005

VFR

9°C / 6°C

[Още]
Вятър 90º 10kt
Видимост >10km
Времето -
Облаци Scattered Clouds 3300ft
Налягане 1020
Промяна No Significant change. Runway 15: Wet or puddles, 51-100% contamination with 1mm, friction coefficient 0.50.
Сурови UWWW 230400Z 09005MPS 9999 SCT033 09/06 Q1020 R15/290150 NOSIG RMK QFE753/1004

VFR

9°C / 6°C

[Още]
Вятър 80º 10kt
Видимост >10km
Времето -
Облаци Scattered Clouds 3300ft
Налягане 1019
Промяна No Significant change. Runway 15: Wet or puddles, 51-100% contamination with 1mm, friction coefficient 0.50.
Сурови UWWW 230330Z 08005MPS 9999 SCT033 09/06 Q1019 R15/290150 NOSIG RMK QFE753/1004

VFR

9°C / 6°C

[Още]
Вятър 90º 10kt
Видимост >10km
Времето -
Облаци Scattered Clouds 3300ft
Налягане 1020
Промяна No Significant change. Runway 15: Wet or puddles, 51-100% contamination with 1mm, friction coefficient 0.50.
Сурови UWWW 230300Z 09005MPS 9999 SCT033 09/06 Q1020 R15/290150 NOSIG RMK QFE753/1004

VFR

9°C / 6°C

[Още]
Вятър 80º 10kt
Видимост >10km
Времето -
Облаци Scattered Clouds 3300ft
Налягане 1019
Промяна No Significant change. Runway 15: Wet or puddles, 51-100% contamination with 1mm, friction coefficient 0.50.
Сурови UWWW 230230Z 08005MPS 9999 SCT033 09/06 Q1019 R15/290150 NOSIG RMK QFE753/1004

VFR

9°C / 6°C

[Още]
Вятър 80º 10kt
Видимост >10km
Времето -
Облаци Scattered Clouds 3300ft
Налягане 1019
Промяна No Significant change. Runway 15: Wet or puddles, 51-100% contamination with 1mm, friction coefficient 0.50.
Сурови UWWW 230200Z 08005MPS 9999 SCT033 09/06 Q1019 R15/290150 NOSIG RMK QFE753/1004

VFR

9°C / 6°C

[Още]
Вятър 80º 10kt
Видимост >10km
Времето -
Облаци Scattered Clouds 3300ft
Налягане 1019
Промяна No Significant change. Runway 15: Wet or puddles, 51-100% contamination with 1mm, friction coefficient 0.50.
Сурови UWWW 230130Z 08005MPS 9999 SCT033 09/06 Q1019 R15/290150 NOSIG RMK QFE753/1004

VFR

9°C / 6°C

[Още]
Вятър 80º 10kt
Видимост >10km
Времето -
Облаци Scattered Clouds 3300ft
Налягане 1019
Промяна No Significant change. Runway 15: Wet or puddles, 51-100% contamination with 1mm, friction coefficient 0.50.
Сурови UWWW 230100Z 08005MPS 9999 SCT033 09/06 Q1019 R15/290150 NOSIG RMK QFE753/1004

VFR

9°C / 6°C

[Още]
Вятър 80º 10kt
Видимост >10km
Времето -
Облаци Scattered Clouds 3300ft
Налягане 1019
Промяна No Significant change. Runway 15: Wet or puddles, 51-100% contamination with 1mm, friction coefficient 0.50.
Сурови UWWW 230030Z 08005MPS 9999 SCT033 09/06 Q1019 R15/290150 NOSIG RMK QFE753/1004

VFR

9°C / 6°C

[Още]
Вятър 80º 8kt
Видимост >10km
Времето -
Облаци Scattered Clouds 3300ft
Налягане 1019
Промяна No Significant change. Runway 15: Wet or puddles, 51-100% contamination with 1mm, friction coefficient 0.50.
Сурови UWWW 230000Z 08004MPS 9999 SCT033 09/06 Q1019 R15/290150 NOSIG RMK QFE753/1004

VFR

8°C / 6°C

[Още]
Вятър 70º 6kt
Видимост >10km
Времето -
Облаци Scattered Clouds 3300ft
Налягане 1019
Промяна No Significant change. Runway 15: Wet or puddles, 51-100% contamination with 1mm, friction coefficient 0.50.
Сурови UWWW 222330Z 07003MPS 9999 SCT033 08/06 Q1019 R15/290150 NOSIG RMK QFE753/1004

VFR

9°C / 6°C

[Още]
Вятър 80º 8kt
Видимост >10km
Времето -
Облаци Scattered Clouds 3300ft
Налягане 1019
Промяна No Significant change. Runway 15: Wet or puddles, 51-100% contamination with 1mm, friction coefficient 0.50.
Сурови UWWW 222300Z 08004MPS 9999 SCT033 09/06 Q1019 R15/290150 NOSIG RMK QFE753/1004

VFR

8°C / 6°C

[Още]
Вятър 80º 8kt
Видимост >10km
Времето -
Облаци Scattered Clouds 3300ft
Налягане 1020
Промяна No Significant change. Runway 15: Wet or puddles, 51-100% contamination with 1mm, friction coefficient 0.50.
Сурови UWWW 222230Z 08004MPS 9999 SCT033 08/06 Q1020 R15/290150 NOSIG RMK QFE753/1004

VFR

8°C / 6°C

[Още]
Вятър 90º 8kt
Видимост >10km
Времето -
Облаци Scattered Clouds 3300ft
Налягане 1020
Промяна No Significant change. Runway 15: Wet or puddles, 51-100% contamination with 1mm, friction coefficient 0.50.
Сурови UWWW 222200Z 09004MPS 9999 SCT033 08/06 Q1020 R15/290150 NOSIG RMK QFE753/1004

VFR

9°C / 6°C

[Още]
Вятър 100º 10kt
Видимост >10km
Времето Light Rain 1.00mm precipitation
Облаци Vertical Visibility of 0ft.
Налягане 1020
Промяна No Significant change. Runway 15: Wet or puddles, 51-100% contamination with 1mm, friction coefficient 0.50.
Сурови UWWW 222130Z 10005MPS 9999 -RA SCT033 09/06 Q1020 R15/290150 NOSIG RMK QFE753/1004

VFR

9°C / 6°C

[Още]
Вятър 90º 10kt
Видимост >10km
Времето Light Rain 1.00mm precipitation
Облаци Vertical Visibility of 0ft.
Налягане 1020
Промяна No Significant change. Runway 15: Wet or puddles, 51-100% contamination with 1mm, friction coefficient 0.50.
Сурови UWWW 222100Z 09005MPS 9999 -RA SCT033 09/06 Q1020 R15/290150 NOSIG RMK QFE753/1004

VFR

9°C / 6°C

[Още]
Вятър 100º 6kt
Видимост >10km
Времето Light Rain 1.00mm precipitation
Облаци Vertical Visibility of 0ft.
Налягане 1020
Промяна No Significant change. Runway 15: Wet or puddles, 51-100% contamination with 1mm, friction coefficient 0.50.
Сурови UWWW 222030Z 10003MPS 9999 -RA SCT033 09/06 Q1020 R15/290150 NOSIG RMK QFE753/1005

VFR

9°C / 6°C

[Още]
Вятър 130º 8kt
Видимост >10km
Времето Light Rain 1.00mm precipitation
Облаци Vertical Visibility of 0ft.
Налягане 1020
Промяна No Significant change. Runway 15: Wet or puddles, 51-100% contamination with 1mm, friction coefficient 0.50.
Сурови UWWW 222000Z 13004MPS 9999 -RA SCT033 09/06 Q1020 R15/290150 NOSIG RMK QFE753/1005

VFR

9°C / 6°C

[Още]
Вятър 120º 10kt
Видимост >10km
Времето Light Rain 1.00mm precipitation
Облаци Vertical Visibility of 0ft.
Налягане 1020
Промяна No Significant change. Runway 15: Wet or puddles, 51-100% contamination with 1mm, friction coefficient 0.50.
Сурови UWWW 221930Z 12005MPS 9999 -RA SCT033 09/06 Q1020 R15/290150 NOSIG RMK QFE753/1004

VFR

9°C / 6°C

[Още]
Вятър 130º 8kt
Видимост >10km
Времето Light Rain 1.00mm precipitation
Облаци Vertical Visibility of 0ft.
Налягане 1020
Промяна No Significant change. Runway 15: Wet or puddles, 51-100% contamination with 1mm, friction coefficient 0.50.
Сурови UWWW 221900Z 13004MPS 9999 -RA SCT033 09/06 Q1020 R15/290150 NOSIG RMK QFE753/1004

TAF за 53.5°С 50.15°И (UWWW)

From till


Maximum Temperature 15ºC on . Minimum Temperature 9ºC on .
From till Wind 120º 10kt. Gust 19kt. Visibility 6000m. Light Rain . Broken Clouds 2000ft.
Temporarly from till Light Showers Rain . Broken Clouds 1600ft.
Temporarly from till Wind 80º 17kt. Gust 27kt. Visibility 2000m. Showers Rain . Broken Clouds 1600ft.

Сурови: TAF UWWW 230457Z 2306/2406 12005G10MPS 6000 -RA BKN020 TX15/2311Z TN09/2401Z TEMPO 2306/2312 -SHRA BKN016CB TEMPO 2312/2406 08009G14MPS 2000 SHRA BKN016CB

Актуални сателитни и дъждовни снимки за 53.5°С 50.15°И

Маркерът за локация е поставен върху 53.5°С 50.15°И. [Още]

Сателитното изображение в реално време съчетава видимата светлина през деня с инфрачервеното лъчение през нощта. През нощта изображението не е тъмно, тъй като инфрачервеното лъчение може да открива температурни разлики. За съжаление ниските облаци и мъглата са трудни за разграничаване от температурите на земята и затова могат да бъдат почти невидими през нощта. Сателитните изображения на Meteosat за Европа се актуализират в реално време на всеки 5 минути. Изображенията GOES-16/GOES-17 (Северна и Южна Америка) и Химавари (Азия) се актуализират на всеки 10 минути.

Всички права запазени 2021 EUMETSAT / meteoblue. / Всички права запазени 2021 meteoblue

Радар и валежи в момента за 53.5°С 50.15°И

Капчица
Лек
Умерен
Тежък
Много тежък
Аве

Маркерът за локация обозначава 53.5°С 50.15°И. Анимацията показва Радара за валежи за последния час, както и прогноза за 1h. Дъждът или лекият сняг може да са невидими за радара. Интензивността на валежите е обозначена с цветни кодове, вариращи от светлосиньо до оранжево.